P/2003 L1 ( Scotti )

Japanese version
Home page
Updated on June 28, 2003

---------------------------------------------------------------------

* Profile

Discovery Date June 4, 2003
Magnitude 19.7 mag
Discoverer J. V. Scotti (Kitt Peak)

* Orbital Elements

Epoch 2003 Mar. 22.0 TT = JDT 2452720.5
T 2003 Mar. 7.67544 TT                                  MPC
q   5.0097226            (2000.0)            P               Q
n   0.05686361     Peri.  355.19266     -0.75130883     +0.65022150
a   6.6975059      Node   226.03859     -0.60014411     -0.74431427
e   0.2520018      Incl.    9.02419     -0.27452158     -0.15234261
P  17.33

* Finding Charts

* Magnitudes Graph

        m1 = 9.0 + 5 log d + 10.0 log r

---------------------------------------------------------------------

The orbital elements are published on M.P.E.C. 2003-M21.
The charts are made with StellaNavigator Ver.2.0 for Windows (AstroArts / ASCII).
The magnitudes graphs are made with Comet for Windows.

---------------------------------------------------------------------

Copyright(C) Seiichi Yoshida (comet@aerith.net). All rights reserved.